[[{"header":{"parameterUnit":"m.s-1","parameterCategory":1,"la1":30.2991,"la2":30.254,"lo1":-89.0895,"lo2":-89.0444,"dy":0.0017,"dx":0.0017,"nx":28,"ny":28,"refTime":"2024-05-04T03:00:00:Z","depth":0,"parameterNumber":2,"parameterNumberName":"U-component_of_WINDS"},"data":[0,0,0,0,0,0,0,0,0,0,0,0,0,0,0,0,0,0,0,0,0,0,0,0,0,0,0,0,0,0,0,0,0,0,0,0,0,0,0,0,0,0,0,0,0,0,0,0,0,0,0,0,0,0,0,0,0,0,-2.0813,-2.0814,0,-2.085,-2.085,-2.0851,-2.0828,-2.0827,-2.0826,-2.0825,-2.0862,-2.0864,-2.0866,0,0,0,0,0,0,0,0,0,0,0,0,0,-2.0726,-2.0727,-2.0813,-2.0814,-2.0814,-2.085,-2.085,-2.0851,-2.0828,-2.0827,-2.0826,-2.0824,-2.0861,-2.0863,-2.0866,0,0,0,0,0,0,0,0,0,0,0,0,0,-2.0763,-2.0728,-2.0813,-2.0807,-2.0807,-2.085,-2.085,-2.0851,-2.0828,-2.0827,-2.0825,-2.0824,-2.086,-2.0863,-2.0866,-2.0916,0,0,-2.0875,-2.0876,0,0,0,0,0,0,0,0,-2.0761,-2.0766,-2.0808,-2.0808,-2.0808,-2.0833,-2.0833,-2.0873,-2.0829,-2.082,-2.0825,-2.0823,-2.0853,-2.0857,-2.0867,-2.0918,-2.092,-2.0875,-2.0877,-2.0878,-2.0879,0,0,0,0,0,0,0,-2.0758,-2.0765,-2.0828,-2.0808,-2.0808,-2.0803,-2.0807,-2.084,-2.0845,-2.0821,-2.0819,-2.0824,-2.0853,-2.0864,-2.0868,-2.092,-2.0875,-2.0878,-2.088,-2.0881,-2.1016,-2.1017,0,0,0,0,0,0,-2.0756,-2.0763,-2.0826,-2.0829,-2.078,-2.0806,-2.081,-2.0826,-2.0845,-2.0846,-2.0825,-2.0823,-2.086,-2.0864,-2.0869,-2.0929,-2.0878,-2.0881,-2.0883,-2.1014,-2.1016,-2.1018,0,0,0,0,0,0,-2.0754,-2.0762,-2.0825,-2.0795,-2.0803,-2.0809,-2.0828,-2.0828,-2.0839,-2.0848,-2.0849,-2.0836,-2.0859,-2.0865,-2.0905,-2.093,-2.0883,-2.0885,-2.1012,-2.1014,-2.1017,-2.105,0,0,0,0,0,0,-2.0752,-2.0762,-2.078,-2.0796,-2.0805,-2.086,-2.0829,-2.083,-2.0844,-2.0841,-2.0858,-2.0859,-2.0858,-2.0901,-2.0908,-2.0933,-2.0888,-2.1009,-2.1013,-2.1016,-2.1046,-2.1053,-2.1059,0,0,0,0,0,-2.0749,-2.0788,-2.0781,-2.0789,-2.0828,-2.0861,-2.0866,-2.0864,-2.0846,-2.0865,-2.0872,-2.0859,-2.0927,-2.0905,-2.0913,-2.0939,-2.1008,-2.1012,-2.1016,-2.1043,-2.1052,-2.1059,0,0,0,0,0,0,-2.0774,-2.0789,-2.0782,-2.0827,-2.0843,-2.0858,-2.0881,-2.0873,-2.0894,-2.089,-2.0887,-2.0891,-2.0933,-2.0941,-2.0916,-2.099,-2.0964,-2.097,-2.0983,-2.0991,-2.0997,-2.0993,-2.089,0,0,0,0,0,-2.0785,-2.081,-2.0823,-2.0861,-2.087,-2.0874,-2.0889,-2.0886,-2.0902,-2.0909,-2.0918,-2.0934,-2.096,-2.0976,-2.0999,-2.1048,-2.1052,-2.1071,-2.1077,-2.1082,-2.1087,-2.1114,-2.1122,-2.1031,-2.1031,-2.1031,0,0,-2.0807,-2.0819,-2.0835,-2.0867,-2.0879,-2.0906,-2.088,-2.0909,-2.0929,-2.0913,-2.0951,-2.0959,-2.0978,-2.1023,-2.1043,-2.103,-2.1113,-2.1087,-2.1091,-2.1093,-2.1119,-2.1127,-2.1135,-2.1034,-2.1034,-2.1033,0,0,-2.0861,-2.0873,-2.0906,-2.0919,-2.0938,-2.0941,-2.095,-2.0966,-2.0971,-2.1009,-2.0998,-2.1023,-2.1066,-2.1079,-2.1092,-2.1155,-2.1144,-2.1163,-2.1195,-2.1221,-2.1228,-2.1235,-2.1257,-2.1264,-2.1168,-2.1168,-2.1168,0,-2.0886,-2.0925,-2.0924,-2.0955,-2.0969,-2.0957,-2.0992,-2.1005,-2.103,-2.1041,-2.1027,-2.1082,-2.1093,-2.1142,-2.1157,-2.1168,-2.1177,-2.1159,-2.1228,-2.1234,-2.124,-2.126,-2.1269,-2.117,-2.117,-2.1169,-2.1169,0,-2.0955,-2.0984,-2.1009,-2.1034,-2.1052,-2.1084,-2.1088,-2.1107,-2.1103,-2.1109,-2.1149,-2.1163,-2.1189,-2.1201,-2.1198,-2.125,-2.1241,-2.1228,-2.1202,-2.125,-2.127,-2.1278,-2.1173,-2.1172,-2.1171,-2.1171,0,0,-2.1023,-2.1049,-2.1058,-2.107,-2.1092,-2.1114,-2.1147,-2.1173,-2.1189,-2.1208,-2.1235,-2.1274,-2.1262,-2.1276,-2.1275,-2.1299,-2.1347,-2.1282,-2.1283,-2.1293,-2.1405,-2.1414,-2.1423,-2.1341,-2.1343,-2.1344,-2.1403,0,-2.1077,-2.1133,-2.1134,-2.1186,-2.1213,-2.1204,-2.1232,-2.1249,-2.1256,-2.1279,-2.1287,-2.1314,-2.1296,-2.1305,-2.1328,-2.1336,-2.1369,-2.1332,-2.1366,-2.1367,-2.136,-2.1433,-2.1442,-2.1497,-2.1411,-2.1412,-2.1413,0,-2.1147,-2.1169,-2.1224,-2.1243,-2.1254,-2.128,-2.1305,-2.1328,-2.1348,-2.1351,-2.1369,-2.1364,-2.1399,-2.1374,-2.1421,-2.1396,-2.141,-2.1417,-2.1419,-2.142,-2.1391,-2.1435,-2.1514,-2.1522,-2.1425,-2.1424,-2.1423,0,-2.119,-2.1234,-2.1272,-2.1283,-2.1306,-2.1325,-2.1335,-2.1353,-2.137,-2.1393,-2.1403,-2.143,-2.1444,-2.1465,-2.1468,-2.145,-2.1516,-2.1491,-2.1519,-2.1519,-2.1531,-2.153,-2.1612,-2.1544,-2.1543,-2.1543,-2.1543,0,-2.125,-2.1283,-2.1292,-2.1315,-2.1353,-2.1355,-2.1393,-2.1402,-2.1419,-2.1444,-2.1439,-2.1463,-2.1467,-2.1493,-2.1496,-2.1535,-2.1541,-2.1545,-2.1545,-2.1544,-2.1544,-2.1552,-2.1548,-2.1545,-2.1545,-2.1545,-2.1544,0,-2.1302,-2.1309,-2.1351,-2.137,-2.1376,-2.1403,-2.142,-2.1443,-2.1451,-2.1483,-2.1491,-2.1502,-2.1532,-2.1539,-2.1574,-2.1576,-2.1622,-2.1619,-2.1615,-2.1614,-2.1642,-2.1639,-2.1731,-2.1743,-2.1668,-2.1668,-2.1669,0,-2.1339,-2.1365,-2.1388,-2.1405,-2.1416,-2.1444,-2.1461,-2.1465,-2.1483,-2.1508,-2.1529,-2.1558,-2.1582,-2.163,-2.1642,-2.1669,-2.1666,-2.1697,-2.167,-2.1669,-2.1665,-2.1663,-2.1666,-2.1701,-2.1702,-2.1702,-2.1703,0,-2.1403,-2.1406,-2.143,-2.1457,-2.1478,-2.1499,-2.152,-2.1534,-2.1541,-2.1562,-2.1593,-2.1611,-2.1648,-2.1678,-2.1706,-2.1717,-2.1711,-2.1712,-2.172,-2.1718,-2.1714,-2.1716,-2.1627,-2.1709,-2.1708,-2.1708,-2.1708,-2.1707,-2.1448,-2.1471,-2.1491,-2.1519,-2.1535,-2.1555,-2.1577,-2.1588,-2.1614,-2.1644,-2.1646,-2.1679,-2.17,-2.1737,-2.1751,-2.1778,-2.1768,-2.178,-2.1782,-2.1785,-2.1787,-2.1712,-2.1783,-2.1783,-2.1783,-2.1783,-2.1783,0,-2.1511,-2.1524,-2.155,-2.1579,-2.1602,-2.1596,-2.1618,-2.1638,-2.1667,-2.1687,-2.1711,-2.1747,-2.1777,-2.1792,-2.1821,-2.1839,-2.1838,-2.1847,-2.1845,-2.1847,-2.1794,-2.1784,-2.1848,-2.1848,-2.1848,-2.1848,-2.1848,-2.1848,-2.1546,-2.1584,-2.159,-2.1637,-2.165,-2.1683,-2.1696,-2.1715,-2.1731,-2.1771,-2.1796,-2.1806,-2.1824,-2.1855,-2.1882,-2.1886,-2.1896,-2.1906,-2.1909,-2.1858,-2.1851,-2.1845,-2.1835,-2.1909,-2.1909,-2.196,-2.196,-2.1961]},{"header":{"parameterUnit":"m.s-1","parameterCategory":1,"la1":30.2991,"la2":30.254,"lo1":-89.0895,"lo2":-89.0444,"dy":0.0017,"dx":0.0017,"nx":28,"ny":28,"refTime":"2024-05-04T03:00:00:Z","depth":0,"parameterNumber":3,"parameterNumberName":"V-component_of_WINDS"},"data":[0,0,0,0,0,0,0,0,0,0,0,0,0,0,0,0,0,0,0,0,0,0,0,0,0,0,0,0,0,0,0,0,0,0,0,0,0,0,0,0,0,0,0,0,0,0,0,0,0,0,0,0,0,0,0,0,0,0,3.0142,3.0143,0,3.0207,3.0208,3.0208,3.0288,3.0289,3.029,3.0292,3.0353,3.0353,3.0353,0,0,0,0,0,0,0,0,0,0,0,0,0,3.0084,3.0084,3.0142,3.0143,3.0144,3.0207,3.0208,3.0208,3.0288,3.0289,3.0291,3.0292,3.0352,3.0353,3.0353,0,0,0,0,0,0,0,0,0,0,0,0,0,3.0124,3.0084,3.0142,3.0191,3.0196,3.0207,3.0208,3.0209,3.0287,3.0289,3.0291,3.0293,3.0352,3.0353,3.0354,3.032,0,0,3.0356,3.0356,0,0,0,0,0,0,0,0,3.0122,3.0127,3.0183,3.0188,3.0193,3.0241,3.0209,3.0246,3.0287,3.0252,3.0292,3.0294,3.0314,3.0318,3.0325,3.0322,3.0325,3.0356,3.0356,3.0356,3.0356,0,0,0,0,0,0,0,3.0119,3.0124,3.0168,3.0184,3.019,3.0209,3.0216,3.0217,3.0271,3.0256,3.0262,3.0268,3.0317,3.0325,3.0327,3.0326,3.0356,3.0356,3.0357,3.0357,3.03,3.0298,0,0,0,0,0,0,3.011,3.0121,3.0166,3.017,3.0162,3.0208,3.0217,3.0224,3.0272,3.0281,3.0267,3.0272,3.0323,3.0327,3.033,3.0295,3.0356,3.0357,3.0357,3.0302,3.03,3.0298,0,0,0,0,0,0,3.0108,3.0113,3.0163,3.0147,3.0155,3.0207,3.0214,3.0224,3.0232,3.028,3.029,3.0265,3.0324,3.0329,3.0322,3.0298,3.0357,3.0358,3.0304,3.0301,3.0299,3.0224,0,0,0,0,0,0,3.0106,3.0112,3.01,3.0146,3.0156,3.0155,3.0213,3.0224,3.0234,3.0241,3.0281,3.0289,3.0326,3.0321,3.0323,3.03,3.0358,3.0307,3.0303,3.03,3.0229,3.0219,3.021,0,0,0,0,0,3.0104,3.0075,3.0099,3.0104,3.0142,3.0154,3.0159,3.0203,3.0231,3.022,3.0251,3.0288,3.03,3.032,3.0323,3.0299,3.0309,3.0304,3.03,3.0233,3.0221,3.021,0,0,0,0,0,0,3.0022,3.0082,3.0109,3.0095,3.0119,3.0167,3.0154,3.0188,3.0204,3.021,3.0262,3.0271,3.0258,3.0278,3.0298,3.027,3.031,3.0306,3.0258,3.0247,3.0238,3.0233,3.0359,0,0,0,0,0,3.0003,3.0008,3.0059,3.0042,3.0053,3.0101,3.0107,3.014,3.0166,3.0176,3.0207,3.0229,3.0239,3.0244,3.0255,3.0232,3.0242,3.0217,3.0208,3.02,3.0196,3.0187,3.0177,3.0284,3.0284,3.0284,0,0,2.9962,2.9995,2.9995,3.0026,3.0049,3.0053,3.0109,3.011,3.0114,3.0176,3.0173,3.0196,3.0224,3.021,3.0205,3.0226,3.0169,3.0195,3.0188,3.0189,3.0182,3.0172,3.0163,3.0281,3.0281,3.0282,0,0,2.9891,2.9916,2.9905,2.9927,2.9961,2.9994,2.9991,3.0035,3.0053,3.0051,3.0099,3.0103,3.0117,3.0137,3.0148,3.0086,3.0121,3.0087,3.0039,3.003,3.0022,3.0015,2.9994,2.9985,3.0083,3.0083,3.0083,0,2.9835,2.9845,2.9894,2.9894,2.9907,2.9965,2.9955,2.9973,3.0008,3.0015,3.0038,3.0059,3.0082,3.0074,3.0059,3.0066,3.0065,3.0084,3.0019,3.0012,3.0007,2.9987,2.9979,3.0079,3.0079,3.008,3.008,0,2.9776,2.9782,2.9769,2.9804,2.9815,2.9809,2.9857,2.9862,2.9893,2.9923,2.992,2.9951,2.997,2.997,3.0,2.9966,2.9979,3.001,3.0051,2.9991,2.9974,2.9967,3.0073,3.0075,3.0076,3.0077,0,0,2.9655,2.972,2.9714,2.9732,2.9774,2.9779,2.9776,2.9797,2.98,2.9822,2.9821,2.9833,2.9863,2.9876,2.9908,2.9899,2.985,2.9932,2.9933,2.9917,2.9817,2.9794,2.9785,2.9873,2.9872,2.9871,2.9815,0,2.9593,2.9593,2.9638,2.9625,2.9632,2.9688,2.9686,2.9711,2.9739,2.9747,2.9777,2.9786,2.9823,2.9832,2.9826,2.9857,2.9831,2.9862,2.9872,2.9872,2.9865,2.9776,2.9752,2.9697,2.9808,2.9807,2.9806,0,2.952,2.9541,2.953,2.9575,2.9579,2.9576,2.96,2.9608,2.9637,2.9658,2.9674,2.9711,2.971,2.9749,2.9749,2.9769,2.9776,2.9792,2.9791,2.9794,2.9836,2.9778,2.9681,2.9673,2.9796,2.9797,2.9798,0,2.9435,2.946,2.9457,2.947,2.9522,2.9519,2.954,2.9572,2.9582,2.9602,2.961,2.9628,2.9638,2.9651,2.9692,2.9716,2.9688,2.9729,2.9705,2.9704,2.9697,2.9697,2.9601,2.9699,2.9699,2.9699,2.9699,0,2.9362,2.9353,2.942,2.9418,2.941,2.9462,2.9452,2.9478,2.9506,2.951,2.9558,2.956,2.9614,2.9622,2.9654,2.965,2.9653,2.967,2.9679,2.9667,2.9665,2.9673,2.9678,2.9697,2.9698,2.9698,2.9698,0,2.9266,2.9311,2.9312,2.9362,2.9374,2.9366,2.9408,2.9408,2.9439,2.9443,2.9447,2.9496,2.9508,2.955,2.9571,2.9593,2.9579,2.9595,2.957,2.9576,2.955,2.9552,2.9456,2.9447,2.9549,2.9548,2.9547,0,2.9217,2.9212,2.9262,2.927,2.9289,2.93,2.9311,2.9361,2.9371,2.9406,2.9401,2.9418,2.9434,2.945,2.9486,2.9503,2.9521,2.9486,2.9524,2.9512,2.9522,2.9523,2.9523,2.9478,2.9477,2.9476,2.9475,0,2.9126,2.9149,2.9165,2.9188,2.9201,2.9222,2.9245,2.9247,2.9303,2.9311,2.9326,2.9338,2.9362,2.9377,2.9401,2.9421,2.9457,2.9463,2.9458,2.9446,2.9433,2.9441,2.9549,2.9465,2.9466,2.9466,2.9467,2.9467,2.9053,2.9052,2.9089,2.9105,2.9128,2.9149,2.9152,2.9185,2.9198,2.9223,2.9251,2.9262,2.9292,2.9328,2.9346,2.9354,2.9374,2.9367,2.9365,2.9363,2.9358,2.943,2.9358,2.9359,2.9359,2.9359,2.9359,0,2.8967,2.8993,2.9007,2.904,2.9053,2.9087,2.9115,2.9123,2.9133,2.9159,2.9174,2.9191,2.9207,2.9245,2.9264,2.9263,2.928,2.9267,2.9268,2.9272,2.9339,2.9341,2.9253,2.9253,2.9253,2.9253,2.9253,2.9253,2.8923,2.8924,2.8951,2.8964,2.899,2.9003,2.9016,2.9035,2.9057,2.9074,2.9089,2.9114,2.9145,2.9167,2.9183,2.9194,2.9199,2.918,2.9196,2.9257,2.9268,2.9277,2.928,2.918,2.918,2.913,2.9129,2.9129]}]]